Probability
19 14 9 8 10 17 25 26 22 21 22 21 17 13 10 9 8 9 11 12 10 9 7 7 9 9 7 6 7 8 8 6 6 7 7 6 6 7 9 11 12 12 12
22 18 14 12 13 20 27 28 25 23 22 21 18 14 12 11 9 10 14 15 12 9 7 7 8 8 7 7 9 11 11 8 8 9 8 8 7 7 8 9 10 11 12
25 25 22 19 20 24 29 30 31 30 27 23 19 16 15 14 12 13 17 18 16 11 8 7 7 7 8 9 11 14 14 11 9 9 8 8 8 8 7 7 8 10 12
27 28 29 27 25 26 30 37 41 40 35 28 22 19 18 17 17 17 19 21 20 16 12 9 9 9 9 10 12 14 14 12 9 8 9 9 9 8 7 6 7 8 10
27 30 33 33 29 26 31 42 50 48 41 34 28 24 21 21 20 20 20 22 22 20 17 15 15 14 12 12 14 15 15 14 11 10 11 12 11 10 7 6 6 7 7
26 29 34 35 30 27 31 42 52 53 46 38 33 28 26 25 22 21 20 20 19 19 19 21 22 20 17 19 20 19 17 16 15 14 13 13 12 12 11 9 7 7 7
22 25 30 32 29 28 32 42 53 54 47 41 36 33 31 28 25 23 21 18 16 17 20 24 25 24 23 24 25 24 21 20 18 16 14 13 12 14 16 14 10 8 8
16 21 26 29 27 27 32 43 52 54 47 41 39 37 34 30 27 26 23 20 17 18 21 25 27 27 26 27 27 27 26 26 22 17 14 13 13 15 17 17 14 11 9
12 17 24 28 27 26 30 39 49 53 49 44 41 41 37 32 29 28 25 22 21 21 25 28 29 29 29 31 31 29 28 29 26 19 15 14 15 15 16 17 16 14 12
14 18 24 27 28 26 29 36 46 51 50 46 43 41 39 36 32 29 27 25 26 28 32 34 33 32 33 36 35 31 28 28 27 23 19 17 16 16 16 17 18 18 17
18 21 24 27 28 27 28 34 42 47 48 47 45 42 41 40 36 33 32 32 33 35 36 37 36 33 33 35 35 30 26 25 25 22 19 18 17 16 16 17 18 21 22
20 22 24 26 28 29 30 33 36 40 43 45 42 40 42 41 38 37 37 38 39 39 37 36 35 31 31 31 31 28 25 25 24 21 19 18 18 18 18 18 21 23 23
24 25 27 31 34 34 35 36 35 36 39 40 37 36 39 41 38 36 36 37 38 38 35 33 32 31 30 29 29 29 28 28 26 23 21 20 21 22 22 22 24 23 20
33 35 38 42 42 42 42 41 38 37 39 40 37 35 37 40 37 34 33 34 35 34 31 29 29 30 30 29 30 31 33 31 29 28 26 24 23 23 23 23 23 20 18
40 45 50 48 45 44 46 44 40 40 42 43 42 40 39 39 37 34 32 32 31 30 27 27 27 28 27 26 26 29 33 34 32 32 30 26 21 18 18 19 18 16 15
40 46 49 45 41 42 44 42 40 42 45 45 44 42 38 35 33 31 30 29 27 25 24 25 26 24 21 18 17 21 28 33 34 34 31 25 19 16 14 12 10 10 10
39 40 39 36 35 38 42 40 39 41 44 43 40 37 33 29 27 25 26 27 26 25 26 27 26 24 19 13 10 12 21 29 33 35 33 26 21 19 17 14 9 7 7
40 40 36 32 33 38 41 38 35 36 38 36 33 30 27 26 26 25 25 26 27 28 28 28 27 26 19 13 10 11 18 26 31 33 34 30 24 21 19 17 13 10 9
43 42 36 32 34 39 41 37 32 31 31 29 26 25 26 27 29 29 28 26 27 27 26 24 26 26 20 13 10 12 18 24 25 26 25 24 21 17 15 15 15 13 12
44 41 36 33 36 41 43 38 31 27 26 24 24 25 27 29 30 30 28 26 24 24 23 21 23 23 19 13 8 9 16 20 19 17 15 13 11 10 8 10 13 13 12
43 41 37 35 37 41 41 37 30 26 25 24 25 27 28 29 31 31 28 25 23 23 23 23 22 22 18 11 5 6 11 15 16 13 11 8 6 4 5 7 10 10 9
42 41 39 37 37 37 36 34 31 28 28 29 30 30 29 29 30 31 28 25 24 25 24 23 21 19 14 8 3 3 6 10 12 12 10 7 4 2 2 3 5 5 4
38 36 34 34 36 35 34 34 33 31 31 32 33 32 30 29 31 31 27 24 24 24 23 20 17 15 11 7 5 3 3 6 8 9 8 5 3 1 1 2 2 2 2
34 30 29 32 34 32 31 32 32 32 31 32 33 30 27 26 27 26 23 19 18 19 19 17 13 11 9 7 6 5 5 5 6 6 5 5 3 3 3 3 4 4 5
34 30 29 31 30 27 27 30 31 31 30 29 27 24 21 20 20 19 16 13 10 11 12 11 10 10 9 7 5 6 8 8 6 5 5 6 7 6 6 7 7 8 10
36 33 30 28 26 24 25 30 32 31 29 27 23 19 17 16 16 15 11 8 7 6 6 7 8 9 9 7 5 5 8 9 7 5 6 8 10 9 8 8 8 10 13
Wind_Speed
11 11 10 10 10 8 7 6 5 4 3 2 2 2 2 2 2 2 3 3 2 2 1 1 1 1 1 1 1 1 1 1 0 0 1 1 1 1 1 1 1 1 1
11 11 11 10 10 9 8 7 5 5 3 2 1 1 1 1 2 2 3 3 2 2 2 1 1 1 1 1 0 0 0 1 1 0 1 0 1 1 1 1 1 1 1
13 13 12 10 10 10 9 7 6 5 5 4 2 1 1 1 1 2 2 2 2 2 1 2 1 1 1 2 1 1 0 0 0 0 0 0 0 1 1 0 1 1 0
13 13 12 11 10 10 10 8 7 6 5 4 3 3 3 2 2 2 2 3 3 2 2 2 2 1 1 1 2 1 1 1 1 0 0 1 0 0 1 1 1 0 0
13 14 13 12 10 10 10 9 7 6 5 4 4 3 2 2 2 2 2 3 3 3 3 3 2 2 1 1 1 1 1 1 1 1 0 0 1 1 0 1 1 1 1
11 12 13 11 10 10 10 10 8 6 6 5 4 3 3 2 2 2 2 2 2 3 3 3 2 2 1 1 1 1 2 1 1 1 1 1 1 1 0 1 1 1 1
10 11 12 12 10 10 10 9 9 8 6 6 5 4 3 3 3 3 3 3 2 2 3 3 3 2 2 2 1 2 2 1 1 1 2 2 2 1 0 1 1 0 1
10 11 11 12 11 11 10 10 9 8 7 7 5 4 4 3 3 3 2 2 1 1 3 3 3 3 2 2 2 2 2 2 2 3 2 2 2 1 1 1 1 1 1
8 9 10 10 10 10 9 10 10 8 7 7 6 5 4 4 2 2 2 1 1 2 2 3 3 3 3 3 2 2 2 2 2 2 2 2 2 2 1 1 1 1 1
8 8 8 7 7 7 7 8 9 9 7 7 6 6 5 4 3 2 1 1 1 1 0 2 3 3 3 2 2 2 2 2 2 2 2 2 2 2 2 2 1 1 1
8 7 7 7 7 7 7 8 8 8 7 6 5 4 5 4 3 2 1 1 1 1 1 1 1 2 2 2 2 2 2 2 2 2 2 2 2 2 2 1 1 1 0
6 8 7 5 5 6 5 5 6 6 6 5 5 5 4 4 3 2 2 2 1 1 1 1 1 2 2 2 2 2 2 2 2 1 1 1 1 1 2 2 2 1 0
5 7 7 6 3 3 4 5 5 5 5 5 5 4 4 4 3 3 2 2 2 2 1 1 1 1 1 1 2 2 2 2 1 1 1 1 1 1 1 2 2 1 1
6 7 6 7 5 3 3 4 4 3 4 4 3 3 2 2 2 2 2 2 2 1 1 1 1 1 1 1 1 2 2 2 2 1 1 2 1 1 1 2 1 1 1
6 6 6 5 5 4 3 3 3 3 3 3 3 3 2 1 1 1 1 2 2 3 2 1 2 2 1 1 1 3 2 2 2 1 1 1 2 1 1 1 1 1 1
5 5 5 5 5 4 3 3 3 3 3 4 3 3 2 2 1 1 1 1 2 2 2 2 2 1 1 1 1 2 2 2 2 2 1 2 3 2 2 1 1 1 1
5 4 4 4 4 5 4 3 3 3 3 3 3 3 3 2 2 1 1 2 2 1 2 2 2 1 1 0 1 2 3 2 2 1 2 2 1 2 2 2 2 2 3
4 4 3 3 3 4 4 3 4 3 3 3 2 2 3 2 2 2 2 2 2 2 2 2 2 2 1 2 1 3 4 3 3 2 1 1 1 1 1 1 1 1 2
3 3 3 3 3 4 3 3 3 3 2 2 2 2 2 2 3 3 2 2 2 2 2 2 2 2 2 2 2 3 3 3 3 3 2 2 2 1 1 1 1 1 1
2 2 2 4 3 3 3 3 2 3 2 1 1 1 1 2 2 1 2 2 2 2 3 3 3 3 2 2 2 3 2 3 3 2 2 1 1 1 2 2 1 2 2
3 3 3 4 3 2 3 2 1 1 2 2 1 0 0 1 2 2 2 2 3 3 3 2 2 2 3 2 3 3 2 3 3 2 1 1 2 2 2 3 3 3 3
4 4 4 3 3 2 2 1 1 1 1 2 1 1 1 2 2 2 2 3 3 3 3 2 2 1 1 2 2 3 4 3 2 2 1 1 3 3 4 3 3 3 3
3 2 3 3 3 2 1 1 1 1 1 1 1 1 1 1 1 2 3 3 3 3 2 2 1 1 1 1 2 3 4 3 2 2 1 1 3 3 3 5 5 3 2
2 2 2 2 2 2 1 0 1 1 1 0 0 1 1 2 1 1 2 2 2 2 1 1 1 1 0 0 0 1 1 1 1 1 2 4 5 3 2 2 2 3 2
2 2 2 2 2 1 1 0 1 1 0 1 1 2 2 2 1 1 1 1 0 1 1 1 1 0 0 1 1 1 1 1 1 1 2 2 2 2 2 2 2 2 2
2 2 2 2 2 1 1 0 0 1 1 2 2 2 1 1 2 2 1 2 0 1 1 1 1 1 2 3 2 2 2 2 1 1 2 2 2 2 2 2 2 2 1
Wind_Direction
167 163 161 155 150 145 141 142 148 139 142 144 161 168 157 163 157 150 138 142 157 158 163 101 145 166 123 134 126 127 174 207 191 358 323 292 219 158 163 207 175 170 185
162 161 165 162 157 152 149 147 155 149 155 156 157 149 158 175 158 142 137 153 167 176 179 161 193 166 160 142 159 179 262 230 160 156 252 283 343 320 224 163 178 170 173
167 167 168 167 164 162 160 163 164 160 169 168 166 178 147 167 141 148 149 171 172 181 239 161 211 200 195 159 192 208 182 279 287 121 153 276 252 285 317 244 163 133 191
167 167 169 169 171 167 164 158 161 166 166 173 179 184 178 185 176 178 163 175 182 188 195 194 197 228 231 157 193 169 234 227 264 262 195 222 198 249 317 323 14 304 251
167 168 169 167 173 170 164 159 159 166 166 178 182 200 195 184 184 182 164 174 183 191 197 197 197 206 221 206 211 156 240 253 271 296 271 266 255 245 219 312 314 290 256
163 163 159 160 173 170 166 162 156 163 170 179 186 197 209 206 199 201 175 196 190 191 195 187 191 201 207 217 212 198 230 267 308 310 302 286 264 275 217 228 246 261 260
155 155 155 159 175 173 167 159 157 167 174 180 190 193 208 215 209 228 206 206 200 175 187 199 188 203 211 214 212 212 241 238 260 276 288 298 280 258 227 251 245 266 286
158 158 160 164 176 174 167 162 159 168 178 181 186 188 191 216 219 219 247 210 217 193 184 194 191 197 206 215 210 220 213 215 234 258 266 284 293 299 246 256 267 288 271
153 160 163 166 169 167 167 166 161 169 179 182 184 185 190 211 221 206 236 242 243 223 185 188 189 197 198 210 210 222 232 211 215 251 255 261 280 290 290 268 243 227 279
154 158 154 148 148 148 160 162 158 165 174 179 189 186 189 203 214 213 200 252 264 302 194 202 196 197 194 204 221 230 230 224 223 242 265 267 281 302 284 274 269 257 228
157 156 144 141 144 148 160 158 157 160 168 178 183 182 175 184 198 203 201 213 295 308 284 206 216 203 195 200 215 224 226 224 234 254 261 267 276 309 304 299 296 291 190
143 134 130 130 137 144 144 144 149 156 165 167 173 183 168 176 193 189 187 188 208 237 253 228 231 229 199 194 215 237 240 232 234 242 259 271 289 317 320 325 308 307 126
115 120 123 121 121 139 132 139 147 155 160 168 179 175 171 172 180 181 182 190 203 214 216 246 260 254 225 207 220 231 249 250 245 238 253 261 276 293 313 299 310 326 342
120 123 131 134 137 126 116 129 140 145 145 151 153 141 157 158 172 182 167 177 197 196 193 198 269 276 269 259 251 240 230 234 230 209 227 240 215 203 269 272 309 328 328
119 121 124 123 128 135 133 137 141 135 127 132 133 133 140 127 113 144 192 193 191 198 197 209 225 242 248 294 299 272 228 224 226 208 215 220 139 155 229 288 337 315 295
107 108 115 118 134 140 149 143 144 143 134 142 146 137 153 155 171 187 201 232 209 201 199 227 238 242 267 343 326 305 282 253 227 210 203 204 171 158 160 188 210 257 254
117 116 124 145 144 142 137 152 146 139 148 153 156 152 163 177 205 217 218 241 248 226 215 229 235 204 180 283 334 319 288 279 267 241 222 237 191 171 184 194 213 244 252
109 113 116 115 136 127 135 157 148 143 151 150 158 153 174 189 192 201 214 237 249 232 224 237 235 220 216 223 245 288 264 260 257 241 212 183 161 240 203 226 226 242 251
93 109 120 110 105 114 125 145 149 145 146 166 178 176 190 200 201 204 219 220 233 233 231 229 228 222 228 227 237 253 251 251 249 232 205 179 187 211 163 208 261 286 285
84 94 97 87 87 104 107 126 143 139 144 161 212 190 194 224 222 211 238 233 235 236 234 225 222 212 213 220 236 249 253 259 264 237 191 146 185 174 167 190 235 263 287
106 92 88 86 74 83 99 103 115 113 117 113 90 29 236 223 178 180 227 237 239 242 241 232 234 216 203 204 221 230 237 256 264 265 240 169 160 171 185 208 223 233 255
98 104 100 92 87 78 89 112 74 68 106 125 144 165 189 246 180 174 209 222 235 234 232 225 239 242 204 193 218 231 227 250 265 269 268 190 196 209 215 217 230 235 256
97 106 115 110 105 90 92 127 86 66 92 117 160 195 220 237 212 202 219 219 221 229 221 210 216 199 185 180 218 218 227 238 249 284 280 241 226 229 226 228 235 238 243
109 117 122 119 110 106 96 27 82 80 85 181 230 220 223 228 237 256 239 236 234 231 216 199 215 217 183 81 7 261 230 228 236 278 275 243 231 235 234 233 222 226 238
142 143 136 127 126 131 131 355 58 84 247 245 231 231 239 242 226 243 321 270 270 257 215 231 252 260 270 254 225 253 269 284 315 305 262 245 234 221 215 209 211 216 218
153 152 151 149 150 158 152 222 132 197 236 237 243 244 242 250 239 205 187 43 23 100 135 162 203 190 194 209 222 238 262 257 224 229 250 246 249 247 235 224 221 219 227